KQ7A Weather Reports


Display with metric or nautical units.
time (UTC)temp
F
wind
direction
speed
MPH
gust
MPH
rain 1hr
in
rain 24hr
in
rain mn
in
humidity
%
barometer
mb
20260503054644 52 183 0.0 0.0 0.00 0.01 0.01 77 1016.9
20260503054141 52 183 0.0 0.0 0.00 0.01 0.01 78 1017.0
20260503053639 52 186 0.0 0.0 0.00 0.01 0.01 78 1017.1
20260503053138 53 183 0.0 1.0 0.00 0.01 0.01 78 1017.1
20260503052634 53 198 0.0 1.0 0.00 0.01 0.01 77 1017.1
20260503052130 52 198 0.0 0.0 0.00 0.01 0.01 77 1017.1
20260503051625 51 199 0.0 1.0 0.00 0.01 0.01 78 1017.1
20260503051124 52 211 0.0 0.0 0.00 0.01 0.01 79 1017.3
20260503050620 51 218 1.0 1.0 0.00 0.01 0.01 78 1017.4
20260503050117 51 230 0.0 0.0 0.00 0.01 0.01 81 1017.5
20260503045614 51 242 1.0 1.0 0.07 0.01 0.01 80 1017.4
20260503045111 52 232 0.0 0.0 0.07 0.01 0.01 78 1017.1
20260503044608 52 248 0.0 0.0 0.00 0.00 0.00 79 1017.0
20260503044106 52 238 0.0 0.0 0.00 0.00 0.00 80 1017.0
20260503043601 51 263 2.0 2.0 0.00 0.00 0.00 81 1017.0
20260503043058 52 247 0.0 0.0 0.00 0.00 0.00 80 1016.8
20260503042555 52 321 1.0 1.0 0.00 0.00 0.00 81 1016.6
20260503042051 52 241 0.0 0.0 0.00 0.00 0.00 82 1016.7
20260503041548 52 241 0.0 0.0 0.00 0.00 0.00 82 1016.4
20260503041046 52 241 0.0 0.0 0.00 0.00 0.00 81 1016.4
20260503040543 53 247 0.0 0.0 0.00 0.00 0.00 80 1016.3
20260503040040 53 261 1.0 1.0 0.00 0.00 0.00 77 1016.3
20260503035537 54 256 2.0 3.0 0.00 0.00 0.00 82 1016.3
20260503035035 56 249 0.0 0.0 0.00 0.00 0.00 73 1016.3
20260503034532 57 304 1.0 1.0 0.00 0.00 0.00 63 1016.2
20260503034029 57 256 1.0 1.0 0.00 0.00 0.00 62 1016.3
20260503033526 58 275 1.0 1.0 0.00 0.00 0.00 60 1016.0
20260503033024 58 252 0.0 0.0 0.00 0.00 0.00 57 1016.0
20260503032522 59 2 0.0 0.0 0.00 0.00 0.00 55 1016.0
20260503032020 60 348 0.0 0.0 0.00 0.00 0.00 53 1015.9
20260503031517 60 337 0.0 0.0 0.00 0.00 0.00 49 1015.9
20260503031014 61 314 1.0 1.0 0.00 0.00 0.00 47 1015.6
20260503030510 61 312 4.0 5.0 0.00 0.00 0.00 46 1015.5
20260503030008 60 280 4.0 5.0 0.00 0.00 0.00 47 1015.5
20260503025504 60 256 1.0 2.0 0.00 0.00 0.00 50 1015.4
20260503025002 60 287 7.0 9.0 0.00 0.00 0.00 48 1015.5
20260503024458 60 306 5.0 7.0 0.00 0.00 0.00 49 1015.6
20260503023955 60 332 5.0 6.0 0.00 0.00 0.00 49 1015.4
20260503023452 60 331 3.0 3.0 0.00 0.00 0.00 50 1015.3
20260503022949 60 258 2.0 2.0 0.00 0.00 0.00 54 1015.3
20260503022444 61 292 0.0 1.0 0.00 0.00 0.00 53 1015.1
20260503021940 62 323 0.0 0.0 0.00 0.00 0.00 52 1015.0
20260503021436 63 323 0.0 0.0 0.00 0.00 0.00 45 1014.8
20260503020934 63 327 1.0 1.0 0.00 0.00 0.00 41 1014.8
20260503020432 63 275 2.0 3.0 0.00 0.00 0.00 41 1014.7
20260503015928 63 252 1.0 1.0 0.00 0.00 0.00 41 1015.1
20260503015425 63 270 1.0 1.0 0.00 0.00 0.00 42 1015.0
20260503014921 63 326 1.0 1.0 0.00 0.00 0.00 40 1015.0
20260503014418 64 349 3.0 3.0 0.00 0.00 0.00 41 1014.8
20260503013916 64 338 3.0 3.0 0.00 0.00 0.00 42 1014.8
20260503013413 64 348 4.0 5.0 0.00 0.00 0.00 41 1015.1
20260503012910 64 297 1.0 2.0 0.00 0.00 0.00 43 1015.0
20260503012408 64 316 4.0 5.0 0.00 0.00 0.00 41 1014.8
20260503011904 64 342 0.0 1.0 0.00 0.00 0.00 43 1014.8
20260503011401 64 264 5.0 7.0 0.00 0.00 0.00 42 1014.6
20260503010858 66 244 5.0 7.0 0.00 0.00 0.00 42 1014.4
20260503010354 66 8 2.0 3.0 0.00 0.00 0.00 36 1013.9
20260503005851 66 349 3.0 3.0 0.00 0.00 0.00 37 1013.9
20260503005349 66 0 3.0 5.0 0.00 0.00 0.00 40 1013.6
20260503004845 68 26 6.0 8.0 0.00 0.00 0.00 40 1013.5
20260503004342 68 339 3.0 3.0 0.00 0.00 0.00 34 1013.6
20260503003840 68 97 2.0 3.0 0.00 0.00 0.00 33 1013.9
20260503003337 68 242 5.0 6.0 0.00 0.00 0.00 33 1013.8
20260503002833 69 126 8.0 9.0 0.00 0.00 0.00 33 1013.8
20260503002331 68 160 11.0 14.0 0.00 0.00 0.00 32 1013.9
20260503001827 68 142 4.0 5.0 0.00 0.00 0.00 34 1013.6
20260503001323 69 150 5.0 7.0 0.00 0.00 0.00 34 1013.7
20260503000821 69 143 3.0 3.0 0.00 0.00 0.00 33 1013.8
20260503000319 69 179 3.0 6.0 0.00 0.00 0.00 30 1013.6
20260502235815 69 175 4.0 6.0 0.00 0.00 0.00 32 1013.8
20260502235313 69 160 1.0 2.0 0.00 0.00 0.00 30 1013.9
20260502234809 69 198 3.0 5.0 0.00 0.00 0.00 32 1013.9
20260502234306 69 114 2.0 2.0 0.00 0.00 0.00 30 1014.1
20260502233802 69 180 6.0 7.0 0.00 0.00 0.00 31 1014.0
20260502233259 68 144 5.0 6.0 0.00 0.00 0.00 32 1014.4
20260502232755 68 124 12.0 16.0 0.00 0.00 0.00 32 1014.4
20260502232252 68 142 5.0 5.0 0.00 0.00 0.00 33 1014.4
20260502231749 68 157 15.0 18.0 0.00 0.00 0.00 31 1014.7
20260502231246 69 129 10.0 11.0 0.00 0.00 0.00 31 1014.6
20260502230745 69 157 8.0 10.0 0.00 0.00 0.00 30 1014.5
20260502230243 69 182 9.0 11.0 0.00 0.00 0.00 30 1014.5
20260502225739 69 113 11.0 17.0 0.00 0.00 0.00 31 1014.4
20260502225236 70 163 13.0 15.0 0.00 0.00 0.00 29 1014.6
20260502224732 70 160 9.0 13.0 0.00 0.00 0.00 31 1014.8
20260502224229 70 117 1.0 1.0 0.00 0.00 0.00 29 1014.5
20260502223726 70 142 5.0 7.0 0.00 0.00 0.00 31 1014.8
20260502223224 70 180 7.0 8.0 0.00 0.00 0.00 29 1014.8
20260502222722 70 150 7.0 9.0 0.00 0.00 0.00 32 1014.8
20260502222218 72 143 10.0 14.0 0.00 0.00 0.00 29 1014.8
20260502221714 71 188 6.0 8.0 0.00 0.00 0.00 29 1014.6
20260502221211 72 266 6.0 9.0 0.00 0.00 0.00 30 1014.8
20260502220707 71 145 11.0 15.0 0.00 0.00 0.00 27 1015.0
20260502220204 71 205 2.0 3.0 0.00 0.00 0.00 29 1015.1
20260502215701 71 179 6.0 8.0 0.00 0.00 0.00 29 1015.2
20260502215157 72 101 7.0 9.0 0.00 0.00 0.00 29 1015.3
20260502214655 73 207 3.0 3.0 0.00 0.00 0.00 29 1015.1
20260502214152 73 170 4.0 5.0 0.00 0.00 0.00 26 1015.3
20260502213649 73 225 4.0 5.0 0.00 0.00 0.00 29 1015.4
20260502213146 72 195 2.0 2.0 0.00 0.00 0.00 30 1015.3
20260502212645 72 182 4.0 7.0 0.00 0.00 0.00 29 1015.4
20260502212143 71 243 5.0 7.0 0.00 0.00 0.00 27 1015.6
20260502211638 72 273 5.0 7.0 0.00 0.00 0.00 28 1015.5
20260502211135 71 193 4.0 5.0 0.00 0.00 0.00 29 1015.8
20260502210633 71 229 2.0 3.0 0.00 0.00 0.00 29 1015.6
20260502210130 71 226 18.0 23.0 0.00 0.00 0.00 27 1016.0
20260502205627 71 173 9.0 10.0 0.00 0.00 0.00 27 1016.0
20260502205123 71 232 3.0 5.0 0.00 0.00 0.00 29 1015.9
20260502204620 71 122 0.0 1.0 0.00 0.00 0.00 29 1015.9
20260502204118 71 169 7.0 10.0 0.00 0.00 0.00 28 1016.0
20260502203615 71 188 10.0 11.0 0.00 0.00 0.00 30 1015.9
20260502203113 70 148 7.0 9.0 0.00 0.00 0.00 32 1016.1
20260502202607 69 160 7.0 9.0 0.00 0.00 0.00 37 1015.6
20260502202106 69 266 4.0 6.0 0.00 0.00 0.00 36 1015.9
20260502201556 69 0 3.0 3.0 0.00 0.00 0.00 37 1015.9
20260502201053 69 356 4.0 6.0 0.00 0.00 0.00 39 1015.9
20260502200548 69 65 4.0 5.0 0.00 0.00 0.00 38 1016.1
20260502200047 69 357 2.0 2.0 0.00 0.00 0.00 36 1016.0
20260502195544 68 91 0.0 0.0 0.00 0.00 0.00 38 1016.2
20260502195040 69 350 3.0 3.0 0.00 0.00 0.00 35 1016.1
20260502194537 68 340 3.0 3.0 0.00 0.00 0.00 38 1016.3
20260502194033 68 4 5.0 7.0 0.00 0.00 0.00 35 1016.3
20260502193530 69 23 4.0 6.0 0.00 0.00 0.00 40 1016.6
20260502193027 68 104 0.0 1.0 0.00 0.00 0.00 44 1016.7
20260502192522 67 21 4.0 5.0 0.00 0.00 0.00 38 1016.7
20260502192020 66 63 2.0 3.0 0.00 0.00 0.00 43 1016.4
20260502191517 66 70 1.0 1.0 0.00 0.00 0.00 44 1016.7
20260502191015 65 28 2.0 3.0 0.00 0.00 0.00 47 1016.8
20260502190512 65 92 2.0 2.0 0.00 0.00 0.00 46 1016.9
20260502190009 64 34 1.0 2.0 0.00 0.00 0.00 50 1016.9
20260502185504 64 49 1.0 2.0 0.00 0.00 0.00 49 1016.9
20260502185000 64 85 0.0 1.0 0.00 0.00 0.00 51 1016.8
20260502184450 64 6 3.0 3.0 0.00 0.00 0.00 48 1016.8
20260502183947 64 8 2.0 2.0 0.00 0.00 0.00 52 1017.0
20260502183443 64 116 0.0 0.0 0.00 0.00 0.00 51 1017.0
20260502182938 64 30 2.0 2.0 0.00 0.00 0.00 47 1017.0
20260502182434 63 58 0.0 0.0 0.00 0.00 0.00 51 1017.4
20260502181931 62 26 1.0 1.0 0.00 0.00 0.00 53 1017.4
20260502181429 62 40 2.0 2.0 0.00 0.00 0.00 52 1017.4
20260502180927 61 118 0.0 1.0 0.00 0.00 0.00 54 1017.3
20260502180424 62 29 1.0 1.0 0.00 0.00 0.00 48 1017.5
20260502170343 57 30 0.0 0.0 0.00 0.00 0.00 56 1017.6
20260502164330 56 43 1.0 1.0 0.00 0.00 0.00 56 1017.5
20260502163826 56 82 1.0 2.0 0.00 0.00 0.00 59 1017.7
20260502163322 56 48 1.0 1.0 0.00 0.00 0.00 60 1017.6
20260502162820 57 122 2.0 2.0 0.00 0.00 0.00 56 1017.6
20260502162317 58 158 0.0 0.0 0.00 0.00 0.00 54 1017.6
20260502161814 56 155 0.0 0.0 0.00 0.00 0.00 52 1017.5
20260502161309 56 152 0.0 1.0 0.00 0.00 0.00 54 1017.7
20260502160807 56 68 1.0 1.0 0.00 0.00 0.00 55 1017.5
20260502160301 55 140 0.0 1.0 0.00 0.00 0.00 56 1017.6
20260502152229 52 160 0.0 0.0 0.00 0.00 0.00 61 1017.5
20260502151727 51 133 0.0 0.0 0.00 0.00 0.00 64 1017.6
20260502151224 51 132 0.0 0.0 0.00 0.00 0.00 63 1017.5
20260502150722 50 132 0.0 0.0 0.00 0.00 0.00 63 1017.6
20260502150218 50 255 1.0 1.0 0.00 0.00 0.00 63 1017.6
20260502130607 43 239 0.0 0.0 0.00 0.00 0.00 67 1016.9
20260502130105 44 292 1.0 1.0 0.00 0.00 0.00 65 1016.8
20260502123550 43 222 0.0 0.0 0.00 0.00 0.00 64 1016.8
20260502123046 44 213 0.0 0.0 0.00 0.00 0.00 63 1016.9
20260502122543 44 218 0.0 0.0 0.00 0.00 0.00 62 1016.6
20260502122040 44 220 0.0 0.0 0.00 0.00 0.00 62 1016.7
20260502121538 46 203 0.0 0.0 0.00 0.00 0.00 59 1016.7
20260502121035 45 246 1.0 1.0 0.00 0.00 0.00 58 1016.7
20260502120531 46 244 0.0 0.0 0.00 0.00 0.00 58 1016.6
20260502115526 46 274 1.0 2.0 0.00 0.00 0.00 58 1016.8
20260502115022 46 259 2.0 2.0 0.00 0.00 0.00 56 1016.9
20260502114519 46 228 0.0 0.0 0.00 0.00 0.00 57 1016.9
20260502114015 46 174 0.0 0.0 0.00 0.00 0.00 61 1016.8
20260502113513 46 286 4.0 5.0 0.00 0.00 0.00 58 1016.9
20260502113012 45 270 3.0 3.0 0.00 0.00 0.00 60 1016.9
20260502112509 45 287 1.0 1.0 0.00 0.00 0.00 58 1016.8
20260502112006 46 221 0.0 1.0 0.00 0.00 0.00 58 1017.0
20260502111504 46 277 2.0 2.0 0.00 0.00 0.00 58 1016.9
20260502111001 46 208 0.0 0.0 0.00 0.00 0.00 60 1016.9
20260502110458 47 272 0.0 0.0 0.00 0.00 0.00 55 1016.9
20260502105955 47 229 0.0 0.0 0.00 0.00 0.00 56 1016.6
20260502105453 46 221 0.0 0.0 0.00 0.00 0.00 58 1016.9
20260502104950 46 213 0.0 0.0 0.00 0.00 0.00 58 1016.7
20260502104447 47 270 0.0 0.0 0.00 0.00 0.00 55 1016.8
20260502103945 48 225 0.0 0.0 0.00 0.00 0.00 53 1016.7
20260502103442 48 253 0.0 0.0 0.00 0.00 0.00 52 1016.7
20260502102939 47 277 0.0 0.0 0.00 0.00 0.00 52 1016.8
20260502102436 46 246 0.0 0.0 0.00 0.00 0.00 55 1016.8
20260502101933 47 274 0.0 0.0 0.00 0.00 0.00 55 1016.9
20260502101431 46 258 0.0 0.0 0.00 0.00 0.00 56 1016.7
20260502100929 45 250 1.0 2.0 0.00 0.00 0.00 61 1016.9
20260502100428 46 213 0.0 0.0 0.00 0.00 0.00 62 1016.8
20260502091402 46 246 0.0 1.0 0.00 0.00 0.00 59 1017.3
20260502090859 46 279 1.0 1.0 0.00 0.00 0.00 58 1017.4
20260502090356 47 283 0.0 0.0 0.00 0.00 0.00 65 1017.4
20260502071251 50 298 1.0 1.0 0.00 0.00 0.00 56 1017.7
20260502070749 49 277 1.0 1.0 0.00 0.00 0.00 55 1017.7
20260502070247 49 194 0.0 1.0 0.00 0.00 0.00 61 1017.8
20260502065745 50 220 0.0 0.0 0.00 0.00 0.00 50 1017.7
20260502065243 51 246 0.0 0.0 0.00 0.00 0.00 53 1017.7
20260502064741 50 232 0.0 0.0 0.00 0.00 0.00 55 1017.5
20260502064238 50 232 0.0 0.0 0.00 0.00 0.00 54 1017.7
20260502063735 51 228 0.0 0.0 0.00 0.00 0.00 57 1017.7
20260502063233 50 289 1.0 1.0 0.00 0.00 0.00 59 1017.6
20260502062730 50 263 1.0 1.0 0.00 0.00 0.00 62 1017.8
20260502062228 50 188 0.0 0.0 0.00 0.00 0.00 65 1017.8
20260502061726 53 192 1.0 2.0 0.00 0.00 0.00 52 1017.7
20260502061224 52 276 0.0 2.0 0.00 0.00 0.00 46 1017.5
20260502060719 53 291 1.0 2.0 0.00 0.00 0.00 50 1017.9
20260502060214 50 253 1.0 1.0 0.00 0.00 0.00 56 1018.1